[[{"header":{"parameterUnit":"m.s-1","parameterCategory":1,"la1":30.2991,"la2":30.254,"lo1":-89.0895,"lo2":-89.0444,"dy":0.0017,"dx":0.0017,"nx":28,"ny":28,"refTime":"2023-09-15T03:00:00:Z","depth":0,"parameterNumber":2,"parameterNumberName":"U-component_of_WINDS"},"data":[0,0,0,0,0,0,0,0,0,0,0,0,0,0,0,0,0,0,0,0,0,0,0,0,0,0,0,0,0,0,0,0,0,0,0,0,0,0,0,0,0,0,0,0,0,0,0,0,0,0,0,0,0,0,0,0,0,0,1.4402,1.4402,0,1.4377,1.4377,1.4377,1.4339,1.4338,1.4337,1.4337,1.4311,1.4311,1.431,0,0,0,0,0,0,0,0,0,0,0,0,0,1.4418,1.4418,1.4402,1.4402,1.4401,1.4377,1.4377,1.4377,1.4339,1.4338,1.4337,1.4336,1.4311,1.4311,1.431,0,0,0,0,0,0,0,0,0,0,0,0,0,1.4404,1.4418,1.4402,1.438,1.4377,1.4377,1.4377,1.4376,1.4339,1.4338,1.4337,1.4336,1.4311,1.4311,1.431,1.433,0,0,1.431,1.431,0,0,0,0,0,0,0,0,1.4405,1.4403,1.4383,1.4381,1.4379,1.436,1.4373,1.4361,1.4339,1.4353,1.4337,1.4335,1.4328,1.4326,1.4324,1.4329,1.4328,1.431,1.431,1.431,1.431,0,0,0,0,0,0,0,1.4406,1.4404,1.4392,1.4383,1.438,1.4371,1.4368,1.437,1.4347,1.4352,1.4349,1.4347,1.4326,1.4324,1.4323,1.4327,1.431,1.431,1.431,1.431,1.435,1.4351,0,0,0,0,0,0,1.441,1.4405,1.4393,1.4391,1.4389,1.4372,1.4368,1.4367,1.4346,1.4342,1.4348,1.4345,1.4325,1.4323,1.4322,1.4345,1.431,1.431,1.431,1.4349,1.435,1.4351,0,0,0,0,0,0,1.441,1.4409,1.4394,1.4398,1.4395,1.4373,1.4371,1.4367,1.4364,1.4343,1.4339,1.435,1.4324,1.4322,1.4329,1.4343,1.431,1.431,1.4347,1.4349,1.4351,1.439,0,0,0,0,0,0,1.4411,1.441,1.4416,1.4398,1.4395,1.4401,1.4372,1.4367,1.4365,1.4361,1.4344,1.434,1.4323,1.4329,1.4329,1.4342,1.431,1.4346,1.4348,1.435,1.4387,1.4392,1.4397,0,0,0,0,0,1.4412,1.4428,1.4417,1.4416,1.4403,1.4402,1.44,1.438,1.4366,1.4373,1.436,1.434,1.4342,1.433,1.4329,1.4343,1.4345,1.4348,1.435,1.4385,1.4391,1.4397,0,0,0,0,0,0,1.4447,1.4425,1.4412,1.4423,1.4415,1.4395,1.4403,1.4388,1.4383,1.438,1.4355,1.4352,1.4362,1.4353,1.4341,1.4362,1.4341,1.4343,1.4367,1.4374,1.4379,1.438,1.431,0,0,0,0,0,1.4456,1.4457,1.4438,1.4449,1.4446,1.4426,1.4424,1.441,1.44,1.4397,1.4384,1.4375,1.4374,1.4373,1.4371,1.4386,1.4383,1.4396,1.4401,1.4405,1.4407,1.4416,1.4422,1.436,1.436,1.436,0,0,1.4475,1.4463,1.4465,1.4456,1.4448,1.445,1.4423,1.4425,1.4427,1.4397,1.4403,1.4394,1.4383,1.4394,1.4399,1.4387,1.4424,1.4408,1.4412,1.4411,1.4419,1.4425,1.4431,1.4361,1.4361,1.4361,0,0,1.451,1.45,1.4509,1.4503,1.4491,1.4478,1.4481,1.4465,1.4458,1.4463,1.4442,1.4444,1.4441,1.4435,1.4431,1.4468,1.445,1.4468,1.4494,1.4503,1.4508,1.4512,1.4526,1.4531,1.447,1.447,1.447,0,1.4534,1.4536,1.4516,1.4521,1.4518,1.4493,1.4502,1.4496,1.4485,1.4484,1.4472,1.447,1.4461,1.4471,1.4481,1.4478,1.4481,1.4469,1.4509,1.4513,1.4516,1.4529,1.4534,1.4472,1.4472,1.4472,1.4472,0,1.4567,1.4569,1.4578,1.4568,1.4567,1.4574,1.4556,1.4557,1.4544,1.4533,1.454,1.4529,1.4524,1.4526,1.4512,1.4535,1.4529,1.4513,1.4491,1.4525,1.4536,1.4541,1.4476,1.4475,1.4474,1.4474,0,0,1.462,1.4602,1.4606,1.4602,1.4589,1.4591,1.4598,1.4594,1.4596,1.459,1.4596,1.4596,1.4582,1.4579,1.4565,1.4573,1.4604,1.4556,1.4556,1.4566,1.4629,1.4641,1.4647,1.4593,1.4594,1.4594,1.463,0,1.4652,1.4663,1.4647,1.4661,1.4664,1.4641,1.4648,1.4641,1.4632,1.4633,1.4622,1.4623,1.4604,1.4602,1.461,1.4598,1.4616,1.4596,1.4598,1.4598,1.4601,1.4653,1.4664,1.4699,1.4635,1.4636,1.4636,0,1.469,1.4687,1.4703,1.4691,1.4692,1.4698,1.4694,1.4696,1.4689,1.4681,1.4679,1.4663,1.467,1.465,1.466,1.4646,1.4647,1.4642,1.4643,1.4642,1.4619,1.4653,1.4709,1.4714,1.4643,1.4642,1.4642,0,1.4728,1.4728,1.4738,1.4736,1.4722,1.4727,1.4722,1.4714,1.4714,1.4711,1.4711,1.471,1.4708,1.4708,1.4693,1.4679,1.4705,1.4683,1.4699,1.47,1.4705,1.4704,1.4762,1.4706,1.4706,1.4706,1.4706,0,1.4765,1.4776,1.4755,1.4761,1.4773,1.4755,1.4767,1.4759,1.4753,1.4758,1.4738,1.4743,1.4723,1.4726,1.4714,1.4725,1.4724,1.4719,1.4716,1.472,1.4721,1.472,1.4717,1.4707,1.4707,1.4707,1.4706,0,1.4809,1.4796,1.4805,1.4793,1.479,1.4799,1.4789,1.4794,1.4785,1.4791,1.4792,1.4776,1.4779,1.4765,1.4764,1.4757,1.4773,1.4766,1.4776,1.4773,1.4791,1.4789,1.4849,1.4856,1.4796,1.4796,1.4797,0,1.4833,1.4841,1.483,1.4832,1.4828,1.4832,1.4832,1.4816,1.4817,1.4811,1.4818,1.4819,1.4819,1.4825,1.4814,1.4814,1.4807,1.4828,1.4807,1.4812,1.4807,1.4807,1.4808,1.4832,1.4833,1.4833,1.4834,0,1.4877,1.4871,1.4872,1.4872,1.4874,1.4872,1.487,1.4873,1.4855,1.4858,1.4861,1.4861,1.4863,1.4864,1.4863,1.4858,1.4843,1.4841,1.4845,1.4849,1.4855,1.4852,1.4787,1.4839,1.4839,1.4838,1.4838,1.4838,1.4912,1.4918,1.4913,1.4915,1.4912,1.4911,1.4916,1.4909,1.4911,1.4911,1.4901,1.4907,1.4902,1.4899,1.4896,1.49,1.489,1.4896,1.4897,1.4899,1.4902,1.4855,1.49,1.49,1.49,1.4899,1.4899,0,1.4955,1.4951,1.4954,1.4952,1.4955,1.4942,1.494,1.4943,1.4948,1.4945,1.4946,1.4951,1.4954,1.4944,1.4946,1.4951,1.4945,1.4952,1.4951,1.4951,1.491,1.4907,1.4958,1.4958,1.4958,1.4958,1.4958,1.4958,1.4978,1.4989,1.4983,1.4993,1.4989,1.4994,1.4994,1.4994,1.4991,1.4998,1.5,1.4994,1.4989,1.4991,1.4993,1.499,1.4992,1.5002,1.4997,1.4959,1.4953,1.4948,1.4944,1.5002,1.5002,1.5036,1.5037,1.5037]},{"header":{"parameterUnit":"m.s-1","parameterCategory":1,"la1":30.2991,"la2":30.254,"lo1":-89.0895,"lo2":-89.0444,"dy":0.0017,"dx":0.0017,"nx":28,"ny":28,"refTime":"2023-09-15T03:00:00:Z","depth":0,"parameterNumber":3,"parameterNumberName":"V-component_of_WINDS"},"data":[0,0,0,0,0,0,0,0,0,0,0,0,0,0,0,0,0,0,0,0,0,0,0,0,0,0,0,0,0,0,0,0,0,0,0,0,0,0,0,0,0,0,0,0,0,0,0,0,0,0,0,0,0,0,0,0,0,0,-0.3202,-0.3203,0,-0.3282,-0.3283,-0.3284,-0.3301,-0.3301,-0.33,-0.33,-0.338,-0.3383,-0.3386,0,0,0,0,0,0,0,0,0,0,0,0,0,-0.3065,-0.3067,-0.3202,-0.3203,-0.3204,-0.3282,-0.3283,-0.3284,-0.3301,-0.3301,-0.33,-0.3299,-0.3379,-0.3383,-0.3386,0,0,0,0,0,0,0,0,0,0,0,0,0,-0.3132,-0.3068,-0.3202,-0.3222,-0.3225,-0.3281,-0.3283,-0.3284,-0.3302,-0.3301,-0.33,-0.3299,-0.3378,-0.3382,-0.3386,-0.3428,0,0,-0.3399,-0.34,0,0,0,0,0,0,0,0,-0.3128,-0.3137,-0.3218,-0.3221,-0.3224,-0.3281,-0.3264,-0.3332,-0.3302,-0.3272,-0.33,-0.3299,-0.3348,-0.3354,-0.3371,-0.3432,-0.3435,-0.3399,-0.3401,-0.3403,-0.3404,0,0,0,0,0,0,0,-0.3124,-0.3134,-0.3234,-0.3219,-0.3223,-0.3227,-0.3236,-0.3277,-0.3314,-0.3275,-0.3276,-0.3286,-0.3349,-0.3367,-0.3373,-0.3437,-0.3399,-0.3402,-0.3405,-0.3406,-0.3537,-0.3538,0,0,0,0,0,0,-0.3116,-0.313,-0.3231,-0.3236,-0.3173,-0.323,-0.324,-0.3263,-0.3313,-0.332,-0.3286,-0.3286,-0.3361,-0.3368,-0.3376,-0.3429,-0.3403,-0.3407,-0.3409,-0.3536,-0.3537,-0.3538,0,0,0,0,0,0,-0.3113,-0.3124,-0.3228,-0.3183,-0.3197,-0.3234,-0.326,-0.3265,-0.3283,-0.3322,-0.3329,-0.3298,-0.336,-0.337,-0.3415,-0.3432,-0.3409,-0.3412,-0.3535,-0.3536,-0.3538,-0.3535,0,0,0,0,0,0,-0.3109,-0.3123,-0.3139,-0.3184,-0.3199,-0.3266,-0.3261,-0.3268,-0.329,-0.3291,-0.3335,-0.3341,-0.336,-0.3409,-0.3419,-0.3437,-0.3415,-0.3533,-0.3535,-0.3537,-0.3534,-0.3537,-0.3539,0,0,0,0,0,-0.3104,-0.3135,-0.314,-0.3152,-0.322,-0.3267,-0.3276,-0.3298,-0.3292,-0.3308,-0.3333,-0.334,-0.3429,-0.3414,-0.3425,-0.3445,-0.3532,-0.3535,-0.3537,-0.3533,-0.3536,-0.3539,0,0,0,0,0,0,-0.3091,-0.3141,-0.3147,-0.3194,-0.3226,-0.327,-0.3291,-0.33,-0.3334,-0.3333,-0.3358,-0.3368,-0.3412,-0.3433,-0.3415,-0.3488,-0.348,-0.3485,-0.3473,-0.3477,-0.3479,-0.3473,-0.3419,0,0,0,0,0,-0.3094,-0.3128,-0.317,-0.3207,-0.3223,-0.3254,-0.3275,-0.329,-0.3324,-0.3337,-0.3365,-0.3398,-0.3433,-0.3456,-0.3491,-0.3537,-0.3547,-0.3556,-0.3559,-0.356,-0.3564,-0.3592,-0.3596,-0.3546,-0.3546,-0.3546,0,0,-0.31,-0.3132,-0.3151,-0.3205,-0.3232,-0.3266,-0.3265,-0.3302,-0.3328,-0.3342,-0.3387,-0.3409,-0.3447,-0.3493,-0.3515,-0.3512,-0.358,-0.3563,-0.3565,-0.3568,-0.3594,-0.3599,-0.3603,-0.3548,-0.3548,-0.3547,0,0,-0.3129,-0.3156,-0.319,-0.3217,-0.3258,-0.3279,-0.3287,-0.3329,-0.3345,-0.339,-0.3402,-0.3433,-0.3493,-0.352,-0.3542,-0.3582,-0.359,-0.3593,-0.3605,-0.3631,-0.3635,-0.3639,-0.3654,-0.3659,-0.3596,-0.3596,-0.3596,0,-0.3131,-0.3184,-0.3207,-0.3243,-0.3267,-0.3283,-0.3318,-0.3343,-0.3392,-0.3408,-0.3404,-0.3481,-0.3507,-0.3561,-0.3571,-0.3587,-0.3598,-0.3588,-0.3633,-0.3637,-0.3641,-0.3655,-0.3661,-0.3597,-0.3597,-0.3597,-0.3597,0,-0.3185,-0.3221,-0.3244,-0.3293,-0.3319,-0.3354,-0.3383,-0.3407,-0.3419,-0.3441,-0.3487,-0.352,-0.3562,-0.3575,-0.3587,-0.3631,-0.3628,-0.3628,-0.362,-0.3645,-0.3659,-0.3665,-0.3597,-0.3597,-0.3597,-0.3597,0,0,-0.3208,-0.3269,-0.3277,-0.33,-0.3346,-0.3375,-0.3411,-0.3453,-0.3473,-0.3507,-0.3538,-0.3589,-0.3591,-0.3615,-0.363,-0.3653,-0.3684,-0.3651,-0.3652,-0.3656,-0.3735,-0.3735,-0.3741,-0.3689,-0.369,-0.3691,-0.3732,0,-0.3243,-0.3309,-0.3331,-0.3386,-0.342,-0.3436,-0.3468,-0.35,-0.3521,-0.3553,-0.3577,-0.3613,-0.3611,-0.3626,-0.365,-0.3675,-0.37,-0.3672,-0.3719,-0.372,-0.3709,-0.3748,-0.3748,-0.3785,-0.3737,-0.3738,-0.3739,0,-0.3292,-0.3327,-0.3386,-0.3429,-0.3444,-0.3472,-0.3513,-0.3544,-0.358,-0.3594,-0.3622,-0.3636,-0.3675,-0.3665,-0.3719,-0.37,-0.372,-0.3736,-0.3738,-0.3743,-0.3731,-0.3755,-0.3797,-0.3803,-0.3748,-0.3747,-0.3747,0,-0.3304,-0.3366,-0.3409,-0.3428,-0.3479,-0.3499,-0.3521,-0.3557,-0.3581,-0.3616,-0.3632,-0.3671,-0.3693,-0.3723,-0.3747,-0.3737,-0.3799,-0.3791,-0.3812,-0.3812,-0.3825,-0.3824,-0.3871,-0.3837,-0.3837,-0.3837,-0.3837,0,-0.334,-0.3376,-0.3415,-0.3442,-0.3482,-0.3508,-0.3547,-0.357,-0.3602,-0.3633,-0.3649,-0.3678,-0.3708,-0.3741,-0.376,-0.3803,-0.3812,-0.3825,-0.383,-0.3824,-0.3823,-0.3838,-0.3836,-0.3838,-0.3838,-0.3838,-0.3837,0,-0.336,-0.3388,-0.3436,-0.3481,-0.3493,-0.3521,-0.3559,-0.3586,-0.3608,-0.3648,-0.3659,-0.3694,-0.3734,-0.3761,-0.3812,-0.3825,-0.3871,-0.3875,-0.3859,-0.3861,-0.3881,-0.3879,-0.3941,-0.395,-0.3909,-0.3909,-0.391,0,-0.3382,-0.341,-0.3458,-0.348,-0.3503,-0.3539,-0.3564,-0.359,-0.3616,-0.366,-0.3681,-0.3723,-0.3757,-0.3821,-0.385,-0.389,-0.3895,-0.3914,-0.3901,-0.3895,-0.3896,-0.3894,-0.3898,-0.3916,-0.3916,-0.3916,-0.3917,0,-0.3418,-0.3431,-0.3466,-0.3507,-0.3537,-0.357,-0.3603,-0.3621,-0.3653,-0.3681,-0.3722,-0.3749,-0.3802,-0.3843,-0.3885,-0.3908,-0.3918,-0.392,-0.3928,-0.3922,-0.3912,-0.3919,-0.3865,-0.3919,-0.3919,-0.3919,-0.3918,-0.3918,-0.344,-0.3466,-0.3504,-0.3544,-0.3572,-0.3603,-0.363,-0.3656,-0.3692,-0.3737,-0.3751,-0.3794,-0.3831,-0.3889,-0.3913,-0.3947,-0.3945,-0.3955,-0.3958,-0.396,-0.3961,-0.3906,-0.3955,-0.3955,-0.3955,-0.3955,-0.3955,0,-0.3478,-0.3503,-0.3539,-0.3586,-0.3617,-0.3624,-0.3662,-0.3687,-0.3726,-0.376,-0.3794,-0.3842,-0.3882,-0.3915,-0.3957,-0.3978,-0.3984,-0.3988,-0.3987,-0.3992,-0.3959,-0.395,-0.3983,-0.3983,-0.3983,-0.3983,-0.3983,-0.3983,-0.3501,-0.3545,-0.3563,-0.3622,-0.3647,-0.369,-0.3711,-0.374,-0.3767,-0.3821,-0.3855,-0.3876,-0.391,-0.3954,-0.3992,-0.4,-0.4015,-0.4019,-0.4029,-0.3997,-0.3994,-0.3991,-0.3982,-0.4022,-0.4022,-0.4059,-0.4059,-0.4059]}]]